Terug naar catalogus

SL-24 DEB

ActiefLEO
NORAD 29256·DEBRIS·🇷🇺 Russia

Gelanceerd Jul 12, 2006 vanaf Dombarovsky

Loading…

Volgende Passages (komende 24 uur)

TLE

VersSource: Space-Track

Epoch: Sep 14, 2026, 17:41 UTC

1 29256U 06029C   26257.73687652 -.00000017  00000-0  26707-4 0  9992
2 29256  64.5768 167.8137 0820605 248.6624 102.4961 13.35159534982605

Volg SL-24 DEB in realtime met AllMySat

Download on the App Store